TimeEST,TemperatureF,Dew PointF,Humidity,Sea Level PressureIn,VisibilityMPH,Wind Direction,Wind SpeedMPH,Gust SpeedMPH,PrecipitationIn,Events,Conditions,WindDirDegrees,DateUTC
12:53 AM,55.9,52.0,87,30.30,10.0,ENE,5.8,-,N/A,,Clear,70,2012-12-02 05:53:00
1:53 AM,54.0,51.1,90,30.30,10.0,Calm,Calm,-,N/A,,Clear,0,2012-12-02 06:53:00
2:53 AM,53.1,50.0,89,30.29,10.0,NNE,3.5,-,N/A,,Clear,30,2012-12-02 07:53:00
3:53 AM,54.0,52.0,93,30.29,10.0,NE,4.6,-,N/A,,Clear,50,2012-12-02 08:53:00
4:53 AM,53.1,51.1,93,30.30,9.0,NE,3.5,-,N/A,,Clear,50,2012-12-02 09:53:00
5:29 AM,53.6,51.8,94,30.26,9.0,ENE,5.8,-,N/A,,Partly Cloudy,60,2012-12-02 10:29:00
5:53 AM,54.0,52.0,93,30.30,9.0,ENE,3.5,-,N/A,,Clear,60,2012-12-02 10:53:00
6:53 AM,54.0,52.0,93,30.31,7.0,ENE,3.5,-,N/A,,Clear,70,2012-12-02 11:53:00
7:53 AM,53.1,51.1,93,30.33,3.0,Calm,Calm,-,N/A,,Clear,0,2012-12-02 12:53:00
8:53 AM,57.0,55.0,93,30.35,3.0,Calm,Calm,-,N/A,,Scattered Clouds,0,2012-12-02 13:53:00
9:53 AM,62.1,57.9,86,30.37,10.0,East,5.8,-,N/A,,Partly Cloudy,90,2012-12-02 14:53:00
10:53 AM,69.1,60.1,73,30.36,10.0,ENE,3.5,-,N/A,,Partly Cloudy,70,2012-12-02 15:53:00
11:53 AM,73.0,59.0,61,30.35,10.0,ESE,8.1,-,N/A,,Clear,120,2012-12-02 16:53:00
12:53 PM,75.0,55.9,51,30.31,10.0,SE,5.8,-,N/A,,Scattered Clouds,140,2012-12-02 17:53:00
1:53 PM,75.9,57.9,54,30.29,10.0,SSE,9.2,-,N/A,,Scattered Clouds,160,2012-12-02 18:53:00
2:53 PM,75.0,57.9,55,30.27,10.0,SSE,9.2,-,N/A,,Scattered Clouds,150,2012-12-02 19:53:00
3:53 PM,75.2,59.0,57,30.22,10.0,SSW,6.9,-,N/A,,Partly Cloudy,200,2012-12-02 20:53:00
4:53 PM,73.0,60.1,64,30.26,10.0,South,8.1,-,N/A,,Clear,190,2012-12-02 21:53:00
5:53 PM,66.9,61.0,81,30.27,10.0,Calm,Calm,-,N/A,,Clear,0,2012-12-02 22:53:00
6:53 PM,63.0,60.1,90,30.27,10.0,Calm,Calm,-,N/A,,Scattered Clouds,0,2012-12-02 23:53:00
7:53 PM,60.1,57.0,90,30.27,6.0,Calm,Calm,-,N/A,,Clear,0,2012-12-03 00:53:00
8:53 PM,57.9,55.0,90,30.27,10.0,Calm,Calm,-,N/A,,Clear,0,2012-12-03 01:53:00
9:53 PM,55.0,52.0,89,30.28,10.0,Calm,Calm,-,N/A,,Clear,0,2012-12-03 02:53:00
10:53 PM,55.0,53.1,93,30.28,10.0,Calm,Calm,-,N/A,,Scattered Clouds,0,2012-12-03 03:53:00
11:11 PM,55.4,51.8,88,30.25,4.0,Calm,Calm,-,N/A,,Mostly Cloudy,0,2012-12-03 04:11:00
11:14 PM,53.6,51.8,94,30.25,1.8,Calm,Calm,-,N/A,,Mostly Cloudy,0,2012-12-03 04:14:00
11:22 PM,53.6,51.8,94,30.25,3.0,Calm,Calm,-,N/A,,Mostly Cloudy,0,2012-12-03 04:22:00
11:32 PM,53.6,51.8,94,30.25,9.0,Calm,Calm,-,N/A,,Scattered Clouds,0,2012-12-03 04:32:00
11:45 PM,53.6,51.8,94,30.25,1.8,Calm,Calm,-,N/A,,Scattered Clouds,0,2012-12-03 04:45:00
11:53 PM,53.1,50.0,89,30.28,2.5,Calm,Calm,-,N/A,,Mostly Cloudy,0,2012-12-03 04:53:00